This is the latest recevied weather packets stored in our database for station/object K5BV. If no packets are shown the sender has not sent any weather packets the latest 10 day(s).
| Time | Temp. | Humidity | Pressure | Rain* | Wind** | Luminosity | Snow |
|---|---|---|---|---|---|---|---|
| 1777742560 | 21.11° C | 70% | 1021.5 hPa | 0 mm | - | - | - |
| 1777741959 | 20.56° C | 70% | 1021.6 hPa | 0 mm | - | - | - |
| 1777741371 | 20.56° C | 70% | 1021.6 hPa | 0 mm | - | - | - |
| 1777740760 | 20° C | 73% | 1021.6 hPa | 0 mm | - | - | - |
| 1777740160 | 20° C | 74% | 1021.6 hPa | 0 mm | - | - | - |
| 1777739561 | 20° C | 75% | 1021.6 hPa | 0 mm | - | - | - |
| 1777738960 | 20° C | 79% | 1021.5 hPa | 0 mm | - | - | - |
| 1777738360 | 19.44° C | 78% | 1021.4 hPa | 0 mm | - | - | - |
| 1777737760 | 18.33° C | 83% | 1021.3 hPa | 0 mm | - | - | - |
| 1777737159 | 18.33° C | 83% | 1021 hPa | 0 mm | - | - | - |
| 1777736561 | 17.78° C | 85% | 1021.1 hPa | 0 mm | - | - | - |
| 1777735961 | 17.78° C | 87% | 1021.2 hPa | 0 mm | - | - | - |
| 1777735361 | 17.22° C | 88% | 1021 hPa | 0 mm | - | - | - |
| 1777734760 | 17.22° C | 89% | 1020.8 hPa | 0 mm | - | - | - |
| 1777734160 | 16.11° C | 90% | 1020.6 hPa | 0 mm | - | - | - |
| 1777733562 | 16.11° C | 92% | 1020.4 hPa | 0 mm | - | - | - |
| 1777732360 | 16.11° C | 94% | 1020.1 hPa | 0 mm | - | - | - |
| 1777731761 | 15° C | 94% | 1019.8 hPa | 0 mm | - | - | - |
| 1777731159 | 15.56° C | 94% | 1019.7 hPa | 0 mm | - | - | - |
| 1777730561 | 15.56° C | 95% | 1019.6 hPa | 0 mm | - | - | - |
| 1777729960 | 15° C | 95% | 1019.5 hPa | 0 mm | - | - | - |
| 1777729362 | 15° C | 96% | 1019.5 hPa | 0 mm | - | - | - |
| 1777728759 | 15° C | 96% | 1019.5 hPa | 0 mm | - | - | - |
| 1777728159 | 15° C | 96% | 1019.3 hPa | 0 mm | - | - | - |
| 1777727561 | 15° C | 97% | 1019.3 hPa | 0 mm | - | - | - |
* Rain latest hour (hover to see other rain measurements)
** Current wind speed in m/s (hover to see current wind gust speed)